This is the latest recevied weather packets stored in our database for station/object YT6PT-8. If no packets are shown the sender has not sent any weather packets the latest 10 day(s).
| Time | Temp. | Humidity | Pressure | Rain* | Wind** | Luminosity | Snow |
|---|---|---|---|---|---|---|---|
| 1788142550 | 20.56° C | 67% | 1008.6 hPa | 0 mm | 0.89 m/s, 158° | - | - |
| 1788142234 | 20.56° C | 67% | 1008.6 hPa | 0 mm | 0.45 m/s, 158° | - | - |
| 1788141934 | 20.56° C | 67% | 1008.6 hPa | 0 mm | 0.45 m/s, 158° | - | - |
| 1788141635 | 20.56° C | 67% | 1008.7 hPa | 0 mm | 1.34 m/s, 158° | - | - |
| 1788141334 | 20.56° C | 67% | 1008.7 hPa | 0 mm | 1.34 m/s, 158° | - | - |
| 1788141033 | 20.56° C | 67% | 1008.7 hPa | 0 mm | 0.89 m/s, 158° | - | - |
| 1788140733 | 20.56° C | 67% | 1008.7 hPa | 0 mm | 0.89 m/s, 158° | - | - |
| 1788140434 | 20.56° C | 67% | 1008.8 hPa | 0 mm | 1.34 m/s, 158° | - | - |
| 1788140134 | 20.56° C | 67% | 1008.8 hPa | 0 mm | 1.34 m/s, 158° | - | - |
| 1788139834 | 20.56° C | 67% | 1008.7 hPa | 0 mm | 1.79 m/s, 158° | - | - |
| 1788139534 | 20.56° C | 67% | 1008.7 hPa | 0 mm | 1.79 m/s, 158° | - | - |
| 1788139234 | 20.56° C | 67% | 1008.7 hPa | 0 mm | 1.79 m/s, 158° | - | - |
| 1788138954 | 20.56° C | 67% | 1008.7 hPa | 0 mm | 1.79 m/s, 158° | - | - |
| 1788138655 | 20.56° C | 67% | 1008.9 hPa | 0 mm | 0.45 m/s, 158° | - | - |
| 1788138352 | 20.56° C | 67% | 1008.9 hPa | 0 mm | 0.45 m/s, 158° | - | - |
| 1788138055 | 20.56° C | 65% | 1008.7 hPa | 0 mm | 0.45 m/s, 158° | - | - |
| 1788137751 | 20.56° C | 65% | 1008.7 hPa | 0 mm | 0.45 m/s, 158° | - | - |
| 1788137454 | 21.11° C | 65% | 1008.7 hPa | 0 mm | 0 m/s | - | - |
| 1788137134 | 21.11° C | 65% | 1008.7 hPa | 0 mm | 0 m/s | - | - |
| 1788136852 | 21.11° C | 64% | 1008.9 hPa | 0 mm | 0.89 m/s, 158° | - | - |
| 1788136533 | 21.11° C | 64% | 1008.9 hPa | 0 mm | 0.89 m/s, 158° | - | - |
| 1788136233 | 21.11° C | 63% | 1008.8 hPa | 0 mm | 0.45 m/s, 158° | - | - |
| 1788135954 | 21.11° C | 63% | 1008.8 hPa | 0 mm | 0.45 m/s, 158° | - | - |
| 1788135634 | 21.11° C | 63% | 1008.8 hPa | 0 mm | 0.89 m/s, 158° | - | - |
| 1788135334 | 21.11° C | 63% | 1008.8 hPa | 0 mm | 0.89 m/s, 158° | - | - |
* Rain latest hour (hover to see other rain measurements)
** Current wind speed in m/s (hover to see current wind gust speed)